GW7089 Weather Reports


time (UTC)temp
F
wind
direction
speed
knots
gust
knots
rain 1hr
in
rain 24hr
in
rain mn
in
humidity
%
barometer
mb
20260503201157 69 150 1.7 3.5 0.00 0.00 0.00 41 1016.0
20260503200656 68 148 0.0 1.7 0.00 0.00 0.00 39 1016.1
20260503200157 68 293 0.9 2.6 0.00 0.00 0.00 36 1016.0
20260503195656 68 209 0.9 2.6 0.00 0.00 0.00 39 1016.0
20260503195156 68 213 1.7 3.5 0.00 0.00 0.00 40 1016.1
20260503194656 68 162 1.7 3.5 0.00 0.00 0.00 37 1016.0
20260503194157 68 70 1.7 3.5 0.00 0.00 0.00 43 1016.2
20260503193656 67 56 1.7 3.5 0.00 0.00 0.00 43 1016.3
20260503193157 67 79 0.9 2.6 0.00 0.00 0.00 40 1016.2
20260503192656 67 121 0.9 3.5 0.00 0.00 0.00 41 1016.3
20260503192157 66 100 1.7 2.6 0.00 0.00 0.00 40 1016.5
20260503191656 67 50 2.6 6.1 0.00 0.00 0.00 37 1016.7
20260503191156 67 136 1.7 3.5 0.00 0.00 0.00 42 1016.5
20260503190657 67 51 0.9 3.5 0.00 0.00 0.00 38 1016.5
20260503190156 68 59 1.7 3.5 0.00 0.00 0.00 40 1016.7
20260503185657 68 106 0.9 1.7 0.00 0.00 0.00 40 1016.7
20260503185158 67 302 1.7 4.3 0.00 0.00 0.00 41 1016.8
20260503184656 66 4 3.5 5.2 0.00 0.00 0.00 39 1016.7
20260503184156 66 345 2.6 5.2 0.00 0.00 0.00 37 1016.7
20260503183657 64 101 0.9 1.7 0.00 0.00 0.00 40 1016.8
20260503183156 65 6 0.9 3.5 0.00 0.00 0.00 38 1016.8
20260503182657 66 42 1.7 4.3 0.00 0.00 0.00 40 1016.9
20260503182156 67 103 2.6 5.2 0.00 0.00 0.00 43 1017.0
20260503181657 67 14 1.7 5.2 0.00 0.00 0.00 43 1017.0
20260503181156 66 217 1.7 2.6 0.00 0.00 0.00 41 1016.9
20260503180656 66 61 1.7 3.5 0.00 0.00 0.00 41 1017.0
20260503180156 66 25 0.9 2.6 0.00 0.00 0.00 38 1017.0
20260503175656 65 131 1.7 3.5 0.00 0.00 0.00 43 1017.0
20260503175156 64 104 0.9 1.7 0.00 0.00 0.00 47 1016.9
20260503174657 63 125 0.9 2.6 0.00 0.00 0.00 43 1017.0
20260503174156 63 92 0.9 1.7 0.00 0.00 0.00 43 1017.2
20260503173656 64 23 2.6 5.2 0.00 0.00 0.00 40 1017.3
20260503173157 65 132 1.7 3.5 0.00 0.00 0.00 44 1017.2
20260503172657 65 55 0.9 5.2 0.00 0.00 0.00 41 1017.2
20260503172156 66 106 0.9 3.5 0.00 0.00 0.00 43 1017.2
20260503171657 65 89 1.7 3.5 0.00 0.00 0.00 41 1017.3
20260503171156 65 139 0.9 1.7 0.00 0.00 0.00 43 1017.2
20260503170656 64 128 1.7 4.3 0.00 0.00 0.00 44 1017.3
20260503170156 64 42 1.7 5.2 0.00 0.00 0.00 40 1017.3
20260503160157 61 90 0.9 2.6 0.00 0.00 0.00 46 1017.9
20260503150656 58 61 1.7 5.2 0.00 0.00 0.00 48 1018.0
20260503150156 58 106 1.7 4.3 0.00 0.00 0.00 45 1018.0
20260503140156 54 93 1.7 3.5 0.00 0.00 0.00 53 1017.7
20260503131156 53 97 1.7 3.5 0.00 0.00 0.00 57 1017.4
20260503130657 52 117 0.9 1.7 0.00 0.00 0.00 56 1017.4
20260503130157 52 128 1.7 2.6 0.00 0.00 0.00 58 1017.3
20260503120157 51 0 0.0 0.0 0.00 0.00 0.00 61 1016.7
20260503110657 50 44 1.7 3.5 0.00 0.00 0.00 57 1016.2
20260503110156 50 82 0.0 0.0 0.00 0.00 0.00 60 1016.0
20260503100156 50 108 0.9 1.7 0.00 0.00 0.00 74 1014.7
20260503090157 47 69 0.0 0.9 0.00 0.00 0.00 94 1014.0
20260503081159 46 0 0.0 0.0 0.00 0.00 0.00 93 1013.5
20260503080656 46 0 0.0 0.0 0.00 0.00 0.00 93 1013.4
20260503080156 46 55 0.0 0.9 0.00 0.00 0.00 93 1013.3
20260503072656 46 57 0.0 0.9 0.00 0.00 0.00 93 1012.9
20260503072156 46 49 0.0 0.0 0.00 0.00 0.00 93 1012.9
20260503071657 46 0 0.0 0.0 0.00 0.00 0.00 93 1012.9
20260503071156 45 55 0.0 1.7 0.00 0.00 0.00 93 1012.9
20260503070656 45 78 0.0 0.0 0.00 0.00 0.00 92 1012.8
20260503070157 45 36 0.0 0.0 0.00 0.00 0.00 92 1012.8
20260503060157 46 0 0.0 0.0 0.00 0.00 0.00 92 1012.4
20260503054656 47 0 0.0 0.0 0.00 0.00 0.00 91 1012.2
20260503054156 47 44 0.0 1.7 0.00 0.00 0.00 91 1012.2
20260503053657 48 0 0.0 0.0 0.00 0.00 0.00 90 1012.2
20260503053156 48 0 0.0 0.0 0.00 0.00 0.00 90 1012.3
20260503052656 48 0 0.0 0.0 0.00 0.00 0.00 90 1012.5
20260503052156 49 57 0.0 0.9 0.00 0.00 0.00 90 1012.6
20260503051658 49 58 0.0 0.9 0.00 0.00 0.00 89 1012.5
20260503051156 49 19 0.0 0.0 0.00 0.00 0.00 88 1012.6
20260503050657 50 0 0.0 0.0 0.00 0.00 0.00 87 1012.6
20260503050157 50 0 0.0 0.0 0.00 0.00 0.00 85 1012.5
20260503045656 51 0 0.0 0.0 0.00 0.00 0.00 84 1012.4
20260503045156 51 50 0.0 1.7 0.00 0.00 0.00 84 1012.5
20260503044656 51 70 0.0 0.9 0.00 0.00 0.00 79 1012.5
20260503044156 51 55 0.0 0.9 0.00 0.00 0.00 79 1012.5
20260503043657 51 0 0.0 0.0 0.00 0.00 0.00 82 1012.5
20260503043156 51 51 0.0 1.7 0.00 0.00 0.00 82 1012.5
20260503042657 51 44 0.9 1.7 0.00 0.00 0.00 79 1012.5
20260503042156 51 100 0.0 0.9 0.00 0.00 0.00 82 1012.4
20260503041656 52 0 0.0 0.0 0.00 0.00 0.00 84 1012.5
20260503041156 52 64 0.0 1.7 0.00 0.00 0.00 83 1012.5
20260503040656 52 43 0.0 1.7 0.00 0.00 0.00 79 1012.6
20260503040157 52 74 0.0 0.9 0.00 0.00 0.00 82 1012.5
20260503035656 52 57 0.0 0.9 0.00 0.00 0.12 81 1012.5
20260503035157 52 0 0.0 0.0 0.00 0.00 0.12 79 1012.5
20260503034657 52 0 0.0 0.0 0.00 0.00 0.12 81 1012.6
20260503034156 52 28 0.0 1.7 0.00 0.00 0.12 78 1012.5
20260503033656 52 0 0.0 0.0 0.00 0.00 0.12 77 1012.4
20260503033156 52 0 0.0 0.0 0.00 0.00 0.12 79 1012.4
20260503032656 52 61 0.0 0.9 0.00 0.00 0.12 73 1012.4
20260503032156 52 0 0.0 0.0 0.00 0.00 0.12 77 1012.3
20260503031656 52 0 0.0 0.0 0.00 0.00 0.12 78 1012.3
20260503031156 52 78 0.0 0.9 0.00 0.00 0.12 81 1012.3
20260503030656 52 72 0.0 0.9 0.00 0.00 0.12 81 1012.4
20260503030156 52 72 0.0 0.9 0.00 0.00 0.12 81 1012.3
20260503025657 52 46 0.0 0.9 0.00 0.00 0.12 82 1012.3
20260503025156 52 0 0.0 0.0 0.00 0.00 0.12 84 1012.3
20260503024656 52 0 0.0 0.0 0.00 0.00 0.12 82 1012.5
20260503024156 52 0 0.0 0.0 0.00 0.00 0.12 81 1012.5
20260503023656 52 40 0.0 0.0 0.00 0.00 0.12 81 1012.6
20260503023157 52 75 0.0 0.9 0.00 0.00 0.12 82 1012.5
20260503022656 53 33 0.0 0.9 0.00 0.00 0.12 80 1012.5
20260503022204 53 0 0.0 0.0 0.00 0.00 0.12 81 1012.5
20260503021656 53 0 0.0 0.0 0.00 0.00 0.12 79 1012.5
20260503021156 53 76 0.0 0.9 0.00 0.00 0.12 78 1012.5
20260503020656 53 72 0.0 0.9 0.00 0.00 0.12 73 1012.5
20260503020156 53 81 0.0 0.9 0.00 0.00 0.12 77 1012.6
20260503015657 53 0 0.0 0.0 0.00 0.00 0.12 75 1012.5
20260503015156 53 39 0.0 0.9 0.00 0.00 0.12 72 1012.5
20260503014656 53 78 0.0 1.7 0.00 0.00 0.12 74 1012.4
20260503014156 53 53 0.0 0.9 0.00 0.00 0.12 70 1012.4
20260503013656 53 63 0.0 0.9 0.00 0.00 0.12 78 1012.3
20260503013156 53 0 0.0 0.0 0.00 0.00 0.12 73 1012.1
20260503012656 53 0 0.0 0.0 0.00 0.00 0.12 74 1012.0
20260503012156 54 0 0.0 0.0 0.00 0.00 0.12 74 1011.9
20260503011656 54 0 0.0 0.0 0.00 0.00 0.12 71 1012.0
20260503011157 54 0 0.0 0.0 0.00 0.00 0.12 72 1011.9
20260503010656 54 0 0.0 0.0 0.00 0.00 0.12 70 1012.0
20260503010156 54 0 0.0 0.0 0.00 0.00 0.12 69 1012.0
20260503005657 54 103 0.9 2.6 0.00 0.00 0.12 71 1012.0
20260503005157 54 89 0.0 0.0 0.00 0.00 0.12 69 1012.0
20260503004658 54 0 0.0 0.0 0.00 0.00 0.12 67 1011.9
20260503004156 54 75 0.0 0.9 0.00 0.00 0.12 67 1012.0
20260503003656 54 0 0.0 0.0 0.00 0.00 0.12 67 1011.8
20260503003156 54 78 0.0 1.7 0.00 0.00 0.12 65 1011.7
20260503002656 54 82 0.9 2.6 0.00 0.00 0.12 64 1011.7
20260503002156 54 125 0.0 0.9 0.00 0.00 0.12 64 1011.7
20260503001656 54 66 0.9 2.6 0.00 0.00 0.12 61 1011.6
20260503001156 54 86 0.0 1.7 0.00 0.00 0.12 62 1011.6
20260503000656 54 81 0.9 1.7 0.00 0.00 0.12 64 1011.5
20260503000156 54 97 0.0 0.9 0.00 0.00 0.12 61 1011.5
20260502235656 54 129 0.9 1.7 0.00 0.00 0.12 59 1011.5
20260502235156 54 92 0.0 1.7 0.00 0.00 0.12 59 1011.3
20260502234656 54 98 0.9 2.6 0.00 0.00 0.12 56 1011.4
20260502234156 54 0 0.0 0.0 0.00 0.00 0.12 59 1011.3
20260502233656 54 79 0.9 2.6 0.00 0.00 0.12 58 1011.2
20260502233156 54 88 0.9 1.7 0.00 0.00 0.12 62 1011.1
20260502232656 54 87 0.0 1.7 0.00 0.00 0.12 65 1011.1
20260502232157 55 0 0.0 0.0 0.00 0.00 0.12 63 1011.2
20260502231656 55 110 0.0 0.9 0.00 0.00 0.12 64 1011.3
20260502231156 55 0 0.0 0.0 0.00 0.00 0.12 60 1011.3
20260502230656 55 0 0.0 0.0 0.00 0.00 0.12 63 1011.2
20260502230156 55 103 0.9 2.6 0.00 0.00 0.12 62 1011.1
20260502225656 55 330 0.0 0.9 0.00 0.00 0.12 64 1011.1
20260502225156 55 78 0.0 1.7 0.00 0.00 0.12 66 1011.1
20260502224656 55 0 0.0 0.0 0.00 0.00 0.12 67 1011.2
20260502224156 55 111 0.0 2.6 0.00 0.00 0.12 64 1011.3
20260502223656 55 0 0.0 0.0 0.00 0.00 0.12 65 1011.3
20260502223156 55 0 0.0 0.0 0.00 0.00 0.12 64 1011.4
20260502222656 56 145 0.0 1.7 0.00 0.00 0.12 62 1011.4
20260502222156 56 68 1.7 3.5 0.00 0.00 0.12 61 1011.4
20260502221656 56 155 0.9 2.6 0.00 0.00 0.12 67 1011.5
20260502221156 56 98 0.0 0.9 0.00 0.00 0.12 64 1011.4
20260502220656 56 86 0.0 0.0 0.00 0.00 0.12 65 1011.4
20260502220156 57 0 0.0 0.0 0.00 0.00 0.12 64 1011.4
20260502215656 57 110 0.0 1.7 0.00 0.00 0.12 65 1011.4
20260502215156 57 115 0.0 1.7 0.00 0.00 0.12 69 1011.4
20260502214656 57 97 0.0 0.9 0.00 0.00 0.12 67 1011.2
20260502214158 57 76 1.7 2.6 0.00 0.00 0.12 65 1011.2
20260502213656 58 95 0.0 1.7 0.00 0.00 0.12 66 1011.1
20260502213156 58 94 0.9 1.7 0.00 0.00 0.12 64 1011.0
20260502212656 58 108 0.0 1.7 0.00 0.00 0.12 65 1011.0
20260502212157 58 137 0.0 1.7 0.00 0.00 0.12 67 1010.9
20260502211657 58 126 0.0 1.7 0.00 0.00 0.12 65 1011.0
20260502211156 58 73 0.9 3.5 0.00 0.00 0.12 66 1010.9
20260502210656 58 77 0.0 1.7 0.00 0.00 0.12 67 1010.9
20260502210156 58 110 0.0 0.9 0.00 0.00 0.12 65 1010.9
20260502205656 58 66 1.7 3.5 0.00 0.00 0.12 62 1010.9
20260502205156 58 133 0.9 1.7 0.00 0.00 0.12 64 1011.0
20260502204656 58 100 0.9 2.6 0.00 0.00 0.12 64 1011.0
20260502204156 58 96 0.9 2.6 0.00 0.00 0.12 63 1010.9
20260502203656 58 113 0.9 1.7 0.00 0.00 0.12 60 1010.9
20260502203156 59 142 0.9 2.6 0.00 0.00 0.12 60 1010.9
20260502202656 59 109 0.9 2.6 0.00 0.00 0.12 62 1010.9
20260502202157 60 127 1.7 1.7 0.00 0.00 0.12 62 1010.9
20260502201656 60 118 0.9 1.7 0.00 0.00 0.12 66 1010.9